Presque Isle, ME

4:51 PM EST on February 06, 2016 (GMT -0500)
Northern Maine Regional At Presque Isle

Weather History for KPQI - November, 2013

Change the Weather History Date:

Saturday, November 2, 2013

  Actual Average Record
Temperature  
Mean Temperature 42 °F -  
Max Temperature 51 °F 47 °F 70 °F (1947)
Min Temperature 33 °F 32 °F 11 °F (1951)
Degree Days  
Heating Degree Days 23    
Moisture  
Dew Point 30 °F    
Average Humidity 62    
Maximum Humidity 75    
Minimum Humidity 52    
Precipitation  
Precipitation 0.00 in - - ()
Sea Level Pressure  
Sea Level Pressure 29.62 in    
Wind  
Wind Speed 12 mph (WNW)    
Max Wind Speed 28 mph    
Max Gust Speed 37 mph    
Visibility 10 miles    
Events      
Averages and records for this station are not official NWS values.
T = Trace of Precipitation, MM = Missing Value Source: NWS Daily Summary

Daily Weather History Graph

Daily Weather History Graph

Search for Another Location

Airport or City:

Trip Planner

Search our weather history database for the weather conditions in past years. The results will help you decide how hot, cold, wet, or windy it might be!

Date:

Astronomy

Nov. 02, 2013 Rise Set
Actual Time 7:15 AM EDT 5:14 PM EDT
Civil Twilight 6:44 AM EDT 5:46 PM EDT
Nautical Twilight 6:08 AM EDT 6:22 PM EDT
Astronomical Twilight 5:33 AM EDT 6:57 PM EDT
Moon 6:06 AM EDT (11/2) 4:45 PM EDT (11/2)
Length of Visible Light 11h 02m
Length of Day
9h 58m
Waning Crescent, 1% of the Moon is Illuminated
Nov 2
Waning Crescent
Nov 3
New
Nov 10
First Quarter
Nov 17
Full
Nov 25
Last Quarter

Hourly Weather History & Observations

Time (EDT) Temp. Windchill Dew Point Humidity Pressure Visibility Wind Dir Wind Speed Gust Speed Precip Events Conditions
12:15 AM 51.8 °F - 35.6 °F 54% 29.37 in 10.0 mi West 23.0 mph 29.9 mph N/A   Mostly Cloudy
12:35 AM 51.8 °F - 35.6 °F 54% 29.40 in 10.0 mi West 27.6 mph 36.8 mph N/A   Overcast
12:55 AM 50.0 °F - 33.8 °F 54% 29.42 in 10.0 mi West 20.7 mph 33.4 mph N/A   Mostly Cloudy
1:15 AM 48.2 °F - 35.6 °F 62% 29.44 in 10.0 mi WSW 13.8 mph 25.3 mph N/A   Mostly Cloudy
1:35 AM 48.2 °F - 33.8 °F 58% 29.46 in 10.0 mi West 19.6 mph 26.5 mph N/A   Scattered Clouds
1:55 AM 46.4 °F 39.5 °F 33.8 °F 62% 29.48 in 10.0 mi West 17.3 mph 21.9 mph N/A   Clear
2:15 AM 46.4 °F 40.4 °F 33.8 °F 62% 29.50 in 10.0 mi West 13.8 mph 20.7 mph N/A   Mostly Cloudy
2:35 AM 46.4 °F 40.1 °F 33.8 °F 62% 29.50 in 10.0 mi West 15.0 mph 20.7 mph N/A   Scattered Clouds
2:55 AM 46.4 °F 41.5 °F 33.8 °F 62% 29.51 in 10.0 mi West 10.4 mph - N/A   Clear
3:15 AM 44.6 °F 40.2 °F 33.8 °F 66% 29.52 in 10.0 mi WSW 8.1 mph - N/A   Clear
3:35 AM 44.6 °F 40.7 °F 32.0 °F 61% 29.53 in 10.0 mi SW 6.9 mph - N/A   Clear
3:55 AM 44.6 °F 40.2 °F 32.0 °F 61% 29.54 in 10.0 mi WSW 8.1 mph - N/A   Clear
4:15 AM 42.8 °F 38.6 °F 32.0 °F 66% 29.54 in 10.0 mi West 6.9 mph - N/A   Clear
4:35 AM 42.8 °F 39.3 °F 32.0 °F 66% 29.55 in 10.0 mi South 5.8 mph - N/A   Clear
4:55 AM 41.0 °F 37.1 °F 32.0 °F 70% 29.56 in 10.0 mi SW 5.8 mph - N/A   Clear
5:15 AM 41.0 °F 36.4 °F 30.2 °F 65% 29.56 in 10.0 mi SW 6.9 mph - N/A   Clear
5:35 AM 41.0 °F 35.8 °F 32.0 °F 70% 29.57 in 10.0 mi WSW 8.1 mph - N/A   Clear
5:55 AM 39.2 °F 35.9 °F 32.0 °F 75% 29.56 in 10.0 mi West 4.6 mph - N/A   Clear
6:15 AM 39.2 °F 37.0 °F 30.2 °F 70% 29.57 in 10.0 mi West 3.5 mph - N/A   Clear
6:35 AM 39.2 °F 35.0 °F 30.2 °F 70% 29.58 in 10.0 mi SW 5.8 mph - N/A   Clear
6:55 AM 39.2 °F 37.0 °F 32.0 °F 75% 29.59 in 10.0 mi WSW 3.5 mph - N/A   Clear
7:15 AM 37.4 °F 34.9 °F 30.2 °F 75% 29.59 in 10.0 mi NE 3.5 mph - N/A   Clear
7:35 AM 37.4 °F 33.8 °F 30.2 °F 75% 29.60 in 10.0 mi SW 4.6 mph - N/A   Clear
7:55 AM 39.2 °F 35.0 °F 32.0 °F 75% 29.61 in 10.0 mi WSW 5.8 mph - N/A   Clear
8:15 AM 41.0 °F 36.4 °F 32.0 °F 70% 29.61 in 10.0 mi West 6.9 mph - N/A   Clear
8:35 AM 42.8 °F 37.5 °F 33.8 °F 70% 29.62 in 10.0 mi SW 9.2 mph - N/A   Clear
8:55 AM 42.8 °F 39.3 °F 33.8 °F 70% 29.63 in 10.0 mi WSW 5.8 mph - N/A   Clear
9:15 AM 42.8 °F 39.3 °F 33.8 °F 70% 29.64 in 10.0 mi WSW 5.8 mph - N/A   Mostly Cloudy
9:35 AM 42.8 °F 41.1 °F 33.8 °F 70% 29.64 in 10.0 mi West 3.5 mph - N/A   Overcast
9:55 AM 44.6 °F 38.8 °F 33.8 °F 66% 29.63 in 10.0 mi West 11.5 mph - N/A   Overcast
10:15 AM 44.6 °F 40.7 °F 33.8 °F 66% 29.62 in 10.0 mi WSW 6.9 mph - N/A   Overcast
10:35 AM 46.4 °F 45.2 °F 33.8 °F 62% 29.61 in 10.0 mi WNW 3.5 mph - N/A   Mostly Cloudy
10:55 AM 46.4 °F - 33.8 °F 62% 29.62 in 10.0 mi Calm Calm - N/A   Scattered Clouds
11:15 AM 46.4 °F 42.9 °F 33.8 °F 62% 29.61 in 10.0 mi West 6.9 mph - N/A   Mostly Cloudy
11:35 AM 46.4 °F 42.4 °F 33.8 °F 62% 29.61 in 10.0 mi SW 8.1 mph - N/A   Overcast
11:55 AM 48.2 °F - 33.8 °F 58% 29.60 in 10.0 mi SW 9.2 mph - N/A   Overcast
12:15 PM 48.2 °F - 33.8 °F 58% 29.60 in 10.0 mi WSW 6.9 mph - N/A   Overcast
12:35 PM 48.2 °F - 33.8 °F 58% 29.60 in 10.0 mi WSW 6.9 mph - N/A   Overcast
12:55 PM 48.2 °F - 33.8 °F 58% 29.60 in 10.0 mi West 8.1 mph - N/A   Overcast
1:15 PM 48.2 °F - 33.8 °F 58% 29.60 in 10.0 mi West 10.4 mph - N/A   Overcast
1:35 PM 48.2 °F - 33.8 °F 58% 29.59 in 10.0 mi West 11.5 mph - N/A   Overcast
1:55 PM 48.2 °F - 33.8 °F 58% 29.59 in 10.0 mi West 10.4 mph - N/A   Overcast
2:15 PM 48.2 °F - 33.8 °F 58% 29.59 in 10.0 mi West 8.1 mph - N/A   Overcast
2:35 PM 48.2 °F - 33.8 °F 58% 29.60 in 10.0 mi West 9.2 mph - N/A   Overcast
2:55 PM 48.2 °F - 33.8 °F 58% 29.60 in 10.0 mi WNW 4.6 mph - N/A   Overcast
3:15 PM 48.2 °F - 33.8 °F 58% 29.59 in 10.0 mi WNW 5.8 mph - N/A   Overcast
3:35 PM 48.2 °F - 33.8 °F 58% 29.60 in 10.0 mi NW 4.6 mph - N/A   Overcast
3:55 PM 48.2 °F - 33.8 °F 58% 29.61 in 10.0 mi NW 8.1 mph - N/A   Overcast
4:15 PM 46.4 °F 42.9 °F 33.8 °F 62% 29.61 in 10.0 mi NNW 6.9 mph - N/A   Overcast
4:35 PM 46.4 °F 41.9 °F 33.8 °F 62% 29.62 in 10.0 mi NNW 9.2 mph - N/A   Overcast
4:55 PM 44.6 °F 38.4 °F 33.8 °F 66% 29.63 in 10.0 mi NNW 12.7 mph - N/A   Overcast
5:15 PM 42.8 °F 35.8 °F 32.0 °F 66% 29.65 in 10.0 mi North 13.8 mph - N/A   Overcast
5:35 PM 42.8 °F 35.1 °F 30.2 °F 61% 29.66 in 10.0 mi North 16.1 mph - N/A   Overcast
5:55 PM 41.0 °F 33.1 °F 30.2 °F 65% 29.67 in 10.0 mi North 15.0 mph - N/A   Overcast
6:15 PM 39.2 °F 31.2 °F 28.4 °F 65% 29.68 in 10.0 mi North 13.8 mph - N/A   Overcast
6:35 PM 39.2 °F 30.8 °F 28.4 °F 65% 29.69 in 10.0 mi North 15.0 mph - N/A   Overcast
6:55 PM 39.2 °F 32.0 °F 26.6 °F 61% 29.71 in 10.0 mi North 11.5 mph - N/A   Overcast
7:15 PM 37.4 °F 27.8 °F 24.8 °F 60% 29.72 in 10.0 mi North 17.3 mph 23.0 mph N/A   Overcast
7:35 PM 37.4 °F 28.5 °F 24.8 °F 60% 29.74 in 10.0 mi North 15.0 mph - N/A   Overcast
7:55 PM 37.4 °F 27.5 °F 21.2 °F 52% 29.75 in 10.0 mi North 18.4 mph 21.9 mph N/A   Overcast
8:15 PM 35.6 °F 27.1 °F 21.2 °F 56% 29.75 in 10.0 mi North 12.7 mph - N/A   Overcast
8:35 PM 35.6 °F 27.1 °F 21.2 °F 56% 29.75 in 10.0 mi North 12.7 mph - N/A   Overcast
8:55 PM 35.6 °F 27.5 °F 21.2 °F 56% 29.77 in 10.0 mi North 11.5 mph - N/A   Overcast
9:15 PM 35.6 °F 27.1 °F 21.2 °F 56% 29.79 in 10.0 mi North 12.7 mph 16.1 mph N/A   Overcast
9:35 PM 35.6 °F 27.5 °F 21.2 °F 56% 29.79 in 10.0 mi North 11.5 mph - N/A   Overcast
9:55 PM 33.8 °F 26.4 °F 21.2 °F 60% 29.81 in 10.0 mi North 9.2 mph - N/A   Overcast
10:15 PM 33.8 °F 26.4 °F 21.2 °F 60% 29.82 in 10.0 mi North 9.2 mph - N/A   Overcast
10:35 PM 33.8 °F 27.0 °F 21.2 °F 60% 29.82 in 10.0 mi NNW 8.1 mph - N/A   Overcast
10:55 PM 33.8 °F 24.3 °F 19.4 °F 56% 29.82 in 10.0 mi North 13.8 mph 20.7 mph N/A   Overcast
11:15 PM 33.8 °F 25.3 °F 19.4 °F 56% 29.83 in 10.0 mi North 11.5 mph - N/A   Overcast
11:35 PM 33.8 °F 26.4 °F 19.4 °F 56% 29.83 in 10.0 mi NNW 9.2 mph - N/A   Overcast
11:55 PM 33.8 °F 24.3 °F 17.6 °F 52% 29.83 in 10.0 mi NNW 13.8 mph - N/A   Overcast